* Astronomy

Members Login
Username 
 
Password 
    Remember Me  
Post Info TOPIC: Asteroid 2009 HE82


L

Posts: 131433
Date:
Asteroid 2009 HE82
Permalink  
 


Orbital elements:
2009 HE82 Earth MOID = 0.2692 AU
Epoch 2009 June 18.0 TT = JDT 2455000.5 MPC
M 251.95064 (2000.0) P Q
n 0.58812871 Peri. 152.53300 +0.90440795 -0.24799370
a 1.4108726 Node 226.52200 +0.24724419 +0.96780131
e 0.1152674 Incl. 28.58553 +0.34773059 -0.04312469
P 1.68 H 18.5 G 0.15 U 9

MPEC 2009 - J06


__________________
Page 1 of 1  sorted by
 
Quick Reply

Please log in to post quick replies.



Create your own FREE Forum
Report Abuse
Powered by ActiveBoard